THORAD AGENA D DEB, 18785

Orbit data source: Space-Track

THORAD AGENA D DEB, 18785 is space debris in SSO originally from a launch on Wed, 08 Apr 1970 UTC launched from the Air Force Western Test Range (AFWTR). Debris objects in space refer to the collection of defunct objects orbiting the Earth. Examples of debris include non-operational satellites, rocket bodies, and fragments generated from explosions, collisions, or faulty payload assembly.

Loading next visibility...
Identifier
18785, 1970-025PQ
Orbit
SSO
Country
Flag of USUS
Related business
Manufacturer
Unknown
Mission
Spacecraft
Bus & Motor
Unknown
Mass
Unknown
Launch date (UTC)
1970-04-08 (56 years ago)
Launch vehicle
Unknown
Launch site
Air Force Western Test Range (AFWTR)
Object type
Payload
Rocket body
Debris
Shape & HBR
Unknown shape, 0.1 m
Radar Cross Section
Small (<0.1 m²)

Expand to show TLE details & history
Last TLE update: 1 day ago

TLE from 1 day ago
0 THORAD AGENA D DEB
1 18785U 70025PQ  26124.65794238  .00000262  00000-0  40663-3 0  9994
2 18785 100.0257  27.0134 0003125  61.3872 328.5211 13.61251610598865
Epoch: 2026-05-04T15:47Z
TLE epoch observation values (Epoch: 2026-05-04T15:47:26.221Z)
Latitude
29.43669°
Longitude
-78.08581°
Altitude
1,032.727 km
Speed
7.339 km/s
True Right ascension
01h 25m 16s
True Declination
29° 17' 43"
Sunlit
Object was in daylight at epoch
Visualization orbit readout
Latitude
Unknown
Longitude
Unknown
Altitude
Unknown
Speed
Unknown
Apparent Right ascension
Unknown
Apparent Declination
Unknown
Sunlit
N/A
Visualization observer readout
Local Sidereal Time
02:38:08
Azimuth
Unknown
Elevation
Unknown
Doppler factor
Unknown
Orbital elements
Apogee altitude
1,030.765 km
Perigee altitude
1,026.136 km
Semi-major axis
7,406.587 km
Eccentricity
0.00031
Inclination
100.0257°
RAAN
27.0134°
Arg. of periapsis
61.3872°
True anomaly
328.50239°
Mean anomaly
328.5211°
Eccentric anomaly
328.51175°
Mean motion
3.40499 °/min
Orbital period
105.73 mins
BSTAR
0.00040663

Documentation

Showing up to 5 results
|